STARLINK-11225, 60912

Orbit data source: Space-Track

STARLINK-11225, 60912 is a payload satellite owned by SpaceX/Seattle (US) in LEO that was launched on Sat, 31 Aug 2024 UTC via an FALCON 9 launch vehicle from the Air Force Eastern Test Range (AFETR). Payload-class satellites include a variety of spacecraft equipped with specific instruments for various scientific and technological missions. These include communications satellites like Starlink; space stations such as the ISS; scientific satellites like the Hubble; Earth observation satellites from companies like Planet Labs, Umbra, and HawkEye 360; GPS; miniature CubeSats for education and research; and military/defense satellites.

Loading next visibility...
Identifier
60912, 2024-154K
Orbit
LEO
Country
Flag of USUS
Related business
Manufacturer
SpaceX/Seattle
Mission
Operational Commercial Communications
Bus & Motor
STARLINK V2MD, Unknown motor
Mass
960 kg wet, ~910 kg dry
Launch date (UTC)
2024-08-31 (2 years ago)
Launch vehicle
FALCON 9
Launch site
Air Force Eastern Test Range (AFETR)
Object type
Payload
Rocket body
Debris
Shape & HBR
Box + 2 Pan, 18.1 m
Radar Cross Section
36.964 m², Large (>1 m²)

Expand to show TLE details & history
Last TLE update: 13 hours ago

TLE from 13 hours ago
0 STARLINK-11225
1 60912U 24154K   26175.71043863 -.00003019  00000-0 -20082-4 0  9998
2 60912  53.1580 323.6565 0000590  39.0719 321.0342 15.69701342105318
Epoch: 2026-06-24T17:03Z
TLE epoch observation values (Epoch: 2026-06-24T17:03:01.897Z)
Latitude
0.00002°
Longitude
155.03486°
Altitude
360.357 km
Speed
7.694 km/s
True Right ascension
21h 34m 37s
True Declination
0° 00' 00"
Sunlit
Object was in full shadow at epoch
Visualization orbit readout
Latitude
Unknown
Longitude
Unknown
Altitude
Unknown
Speed
Unknown
Apparent Right ascension
Unknown
Apparent Declination
Unknown
Sunlit
N/A
Visualization observer readout
Local Sidereal Time
17:02:05
Azimuth
Unknown
Elevation
Unknown
Doppler factor
Unknown
Orbital elements
Apogee altitude
360.41 km
Perigee altitude
359.615 km
Semi-major axis
6,738.15 km
Eccentricity
0.00006
Inclination
53.158°
RAAN
323.6565°
Arg. of periapsis
39.0719°
True anomaly
321.02995°
Mean anomaly
321.0342°
Eccentric anomaly
321.03207°
Mean motion
3.92403 °/min
Orbital period
91.74 mins
BSTAR
-0.000020082
Loading maneuver chart data...
Computing Atmospheric mass density...
Loading historical data...
Loading historical data...
Loading historical data...
Loading historical data...
Loading historical data...
Loading historical data...
Loading historical data...

Documentation

Showing up to 5 results
|